N7EEL Weather Reports


time (UTC)temp
C
wind
direction
speed
KPH
gust
KPH
rain 1hr
cm
rain 24hr
cm
rain mn
cm
humidity
%
barometer
mb
20260507163600 22 231 4.8 14.5 0.00 0.00 0.00
20260507160559 21 232 3.2 12.9 0.00 0.00 0.00
20260507153559 18 246 6.4 16.1 0.00 0.00 0.00
20260507150558 17 242 6.4 12.9 0.00 0.00 0.00
20260507143558 16 229 4.8 12.9 0.00 0.00 0.00
20260507140558 15 256 1.6 6.4 0.00 0.00 0.00
20260507133557 14 228 8.0 17.7 0.00 0.00 0.00
20260507130557 14 226 8.0 19.3 0.00 0.00 0.00
20260507123556 14 191 6.4 14.5 0.00 0.00 0.00
20260507120556 15 201 11.3 24.1 0.00 0.00 0.00
20260507113555 15 195 8.0 17.7 0.00 0.00 0.00
20260507110555 15 224 6.4 16.1 0.00 0.00 0.00
20260507103554 15 172 6.4 12.9 0.00 0.00 0.00
20260507100554 16 187 6.4 14.5 0.00 0.00 0.00
20260507093554 16 224 4.8 14.5 0.00 0.00 0.00
20260507090553 16 249 4.8 19.3 0.00 0.00 0.00
20260507083552 16 198 0.0 4.8 0.00 0.00 0.00
20260507080552 17 222 1.6 8.0 0.00 0.00 0.00
20260507073552 17 276 6.4 12.9 0.00 0.00 0.00
20260507070551 18 225 9.7 20.9 0.00 0.00 0.00
20260507063551 18 149 9.7 22.5 0.00 0.00 0.00
20260507060550 19 219 9.7 27.4 0.00 0.00 0.00
20260507053550 20 225 6.4 17.7 0.00 0.00 0.00
20260507050550 20 167 8.0 17.7 0.00 0.00 0.00
20260507043549 21 177 3.2 9.7 0.00 0.00 0.00
20260507040549 22 0 0.0 0.0 0.00 0.00 0.00
20260507033548 23 0 0.0 0.0 0.00 0.00 0.00
20260507030630 25 0 0.0 0.0 0.00 0.00 0.00
20260507030548 25 0 0.0 0.0 0.00 0.00 0.00
20260507023548 26 271 1.6 4.8 0.00 0.00 0.00
20260507020547 26 28 3.2 11.3 0.00 0.00 0.00
20260507013547 26 298 4.8 11.3 0.00 0.00 0.00
20260507010546 26 204 14.5 29.0 0.00 0.00 0.00
20260507003546 27 172 14.5 30.6 0.00 0.00 0.00
20260507000546 27 187 11.3 22.5 0.00 0.00 0.00
20260506233545 28 242 11.3 20.9 0.00 0.00 0.00
20260506230545 30 152 8.0 19.3 0.00 0.00 0.00
20260506223544 29 208 9.7 22.5 0.00 0.00 0.00
20260506220544 30 219 12.9 20.9 0.00 0.00 0.00
20260506213544 30 219 9.7 22.5 0.00 0.00 0.00
20260506210543 30 183 12.9 22.5 0.00 0.00 0.00
20260506203543 30 173 12.9 22.5 0.00 0.00 0.00
20260506200542 30 226 9.7 30.6 0.00 0.00 0.00
20260506193542 30 235 8.0 20.9 0.00 0.00 0.00
20260506190542 28 221 8.0 20.9 0.00 0.00 0.00
20260506183541 27 184 8.0 17.7 0.00 0.00 0.00
20260506180541 26 210 11.3 27.4 0.00 0.00 0.00
20260506173540 25 239 9.7 22.5 0.00 0.00 0.00
20260506170540 24 225 11.3 25.7 0.00 0.00 0.00